{"data":{"norad_id":53928,"intl_designator":"2022-119AU","name":"STARLINK-5009","alt_names":[],"object_type":"PAYLOAD","status":"ACTIVE","operator":null,"country":"US","launch_date":"2022-09-24","launch_site_code":"AFETR","launch_vehicle":null,"mission":null,"orbit_class":"UNKNOWN","rcs_meters":null,"size_class":null,"mass_kg":null,"dimensions":null,"purposes":["comms"],"wikipedia_slug":null,"has_3d_model":false,"image_url":null,"decayed_at":null,"tle_current":{"epoch":"2026-05-25T04:15:22.078368Z","epoch_age_seconds":53101,"freshness":"FRESH","line1":"1 53928U 22119AU  26145.17733887 -.00000487  00000+0 -12534-4 0  9993","line2":"2 53928  53.2138 320.6513 0001306  97.4714 262.6427 15.08832294203515","mean_motion":15.08832294,"eccentricity":0.0001306,"inclination_deg":53.2138,"raan_deg":320.6513,"arg_perigee_deg":97.4714,"mean_anomaly_deg":262.6427,"bstar":-1.2534e-5,"rev_number":20351,"period_min":95.438042102246,"perigee_km":538.86346496853,"apogee_km":540.6704214785,"semimajor_km":6917.9039432235,"source":"CELESTRAK","updated_at":"2026-05-25T13:38:17.614800Z"}}}